Back to catalog

COSMOS 1089

AliveMilitaryPO
NORAD 11308·PAYLOAD·🇷🇺 Russia

Launched Mar 21, 1979 from Plesetsk Cosmodrome

Loading…

Next Passes (next 24 hours)

TLE

FreshSource: Space-Track

Epoch: Sep 14, 2026, 11:52 UTC

1 11308U 79026A   26257.49461414  .00000038  00000-0  23693-4 0  9990
2 11308  82.9708  89.2117 0023526 125.4223 252.7902 13.75425407381663

Track COSMOS 1089 in real time with AllMySat

Download on the App Store